Location: Monteux
(44.0348°N, 4.9972°E)
Time: 04:38:33
(UTC+00:00)

FENGYUN 1C DEB - Visible Passes

Search period start: 15 June 2021 00:00
Search period end: 25 June 2021 00:00
Orbit: 762 x 827 km, 99.1° (Epoch: 14 June)

Date Brightness Start Highest point End Pass type
(mag) Time Alt. Az. Time Alt. Az. Time Alt. Az.
15 Jun ? 20:24:39 10° NW 20:24:48 10° NW 20:24:58 10° NW visible
19 Jun ? 20:09:41 10° NNW 20:12:06 13° NW 20:14:31 10° W visible
23 Jun ? 19:56:02 10° NNW 19:59:22 17° WNW 20:02:40 10° W visible
